Location: ???????
(55.4362°N, 38.1183°E)
Time: 01:13:17
(UTC+00:00)

SL-16 R/B - Visible Passes

Search period start: 10 December 2022 00:00
Search period end: 20 December 2022 00:00
Orbit: 842 x 846 km, 71.0° (Epoch: 09 December)

Date Brightness Start Highest point End Pass type
(mag) Time Alt. Az. Time Alt. Az. Time Alt. Az.
10 Dec 3.3 02:50:32 10° S 02:55:54 46° ESE 03:01:18 10° NE visible
10 Dec 2.4 04:34:33 10° WSW 04:40:03 48° NW 04:45:34 10° NNE visible
11 Dec 3.3 02:36:11 10° S 02:41:32 44° ESE 02:46:54 10° NE visible
11 Dec 2.4 04:20:09 10° WSW 04:25:38 49° NW 04:31:11 10° NNE visible
12 Dec 3.3 02:21:51 10° S 02:27:09 43° ESE 02:32:30 10° NE visible
12 Dec 2.4 04:05:44 10° WSW 04:11:14 50° NW 04:16:48 10° NNE visible
13 Dec 3.3 02:07:30 10° S 02:12:47 42° ESE 02:18:06 10° NE visible
13 Dec 2.3 03:51:19 10° WSW 03:56:51 52° NW 04:02:25 10° NNE visible
14 Dec 3.3 01:55:20 22° SSE 01:58:25 40° ESE 02:03:41 10° NE visible
14 Dec 2.3 03:37:19 12° WSW 03:42:27 53° NW 03:48:02 10° NNE visible
15 Dec 3.4 01:42:42 34° SE 01:44:02 39° ESE 01:49:17 10° NE visible
15 Dec 2.3 03:24:39 23° WSW 03:28:02 54° NW 03:33:39 10° NNE visible
16 Dec 3.4 01:29:40 38° ESE 01:29:40 38° ESE 01:34:53 10° NE visible
16 Dec 2.3 03:11:35 36° WSW 03:13:39 56° NW 03:19:15 10° NNE visible
16 Dec 3.4 04:54:36 10° WNW 04:58:59 22° NNW 05:03:24 10° NNE visible
17 Dec 3.6 01:16:22 34° E 01:16:22 34° E 01:20:28 10° NE visible
17 Dec 2.2 02:58:16 50° W 02:59:15 57° NW 03:04:52 10° NNE visible
17 Dec 3.4 04:40:11 10° WNW 04:44:34 23° NNW 04:49:00 10° NNE visible
18 Dec 4.0 01:02:55 28° ENE 01:02:55 28° ENE 01:06:04 10° NE visible
18 Dec 2.2 02:44:48 59° NW 02:44:50 59° NW 02:50:29 10° NNE visible
18 Dec 3.4 04:26:42 14° WNW 04:30:08 23° NNW 04:34:36 10° NNE visible
19 Dec 4.3 00:49:19 22° ENE 00:49:19 22° ENE 00:51:39 10° NE visible
19 Dec 2.4 02:31:12 55° NNW 02:31:12 55° NNW 02:36:06 10° NNE visible
19 Dec 3.4 04:13:05 17° WNW 04:15:43 23° NNW 04:20:13 10° NNE visible
